Flag for China Weather past 2 weeks in Changchun, Jilin, China

Now
46 °F

Passing clouds.


Feels Like: 41 °F
Forecast: 24 / 52 °F
Wind: 10 mph from North

Location: Changchun Airport

Current Time: Mar 31, 2015 at 5:16:11 PM

Latest Report: Mar 31, 2015 at 4:00 PM


Visibility: N/A

Pressure: 30.09 "Hg

Humidity: 21%

Dew point: 9 °F

Location of ChangchunLocation

Historic Weather in Changchun — Graph

°F

Changchun temperature yesterday

Maximum temperature yesterday: 61 °F (at 10:00 AM)
Minimum temperature yesterday: 45 °F (at 9:00 PM)
Average temperature yesterday: 52 °F

Past Weeks' High & Low Weather Summary

 TemperatureHumidityPressure
High68 °F (Mar 27, 2:00 PM)93% (Mar 17, 3:00 AM)30.54 "Hg (Mar 17, 3:00 AM)
Low16 °F (Mar 23, 4:00 AM)10% (Mar 24, 4:00 PM)29.74 "Hg (Mar 30, 2:00 PM)
Average41 °F39%30.07 "Hg
* Reported Mar 16 4:00 PM — Mar 31 4:00 PM, Changchun, Weather by CustomWeather, © 2015

Note: Actual official high and low records may vary slightly from our data, if they occured in-between our weather recording intervals... More about our weather records

Advertising

Changchun weather history for previous 24 hours

 ConditionsComfort  
Time TempWeatherWind HumidityBarometerVisibility
4:00 PM
Tue, Mar 31
46 °FPassing clouds.10 mph21%30.09 "HgN/A
3:00 PM48 °FPassing clouds.13 mph21%30.09 "HgN/A
2:00 PM50 °FPassing clouds.10 mph22%30.09 "HgN/A
1:00 PM48 °FPassing clouds.13 mph23%30.09 "HgN/A
12:00 PM50 °FPassing clouds.13 mph22%30.09 "HgN/A
11:00 AM48 °FPassing clouds.13 mph27%30.09 "HgN/A
10:00 AM45 °FPassing clouds.10 mph37%30.09 "HgN/A
9:00 AM43 °FPartly sunny.8 mph42%30.09 "Hg5 mi
8:00 AM43 °FFog.6 mph53%30.07 "Hg3 mi
7:00 AM41 °FFog.3 mph81%30.07 "Hg2 mi
6:00 AM39 °FFog.1 mph81%30.04 "Hg2 mi
5:00 AM41 °FFog.3 mph76%30.01 "Hg3 mi
4:00 AM41 °FFog.3 mph81%29.98 "Hg2 mi
3:00 AM43 °FSprinkles. Fog.3 mph87%29.98 "Hg1 mi
2:00 AM43 °FSprinkles. Fog.3 mph87%29.95 "Hg1 mi
1:00 AM43 °FFog.3 mph93%29.95 "Hg1 mi
12:00 AM43 °FFog.3 mph93%29.95 "Hg1 mi
11:00 PM
Mon, Mar 30
45 °FFog.3 mph87%29.95 "Hg1 mi
10:00 PM45 °FFog.6 mph87%29.92 "Hg1 mi
9:00 PM45 °FFog.3 mph87%29.89 "Hg1 mi
8:00 PM46 °FFog.6 mph76%29.86 "Hg1 mi
7:00 PM48 °FFog.6 mph76%29.83 "Hg1 mi
6:00 PM50 °FOvercast.1 mph71%29.80 "Hg2 mi
5:00 PM52 °FPartly sunny.6 mph67%29.77 "Hg2 mi
Weather by CustomWeather, © 2015

See weather overviewHow to use our weather pages